Preview of NWS' New Version of Forecast
This preview is not operational and should not be used for support decisions.

Regional Weather Roundup (RWR)

Issued by National Weather Service (NWS)

                            
000
ASUS43 KDTX 220901
RWRMI 
MICHIGAN HOURLY REGIONAL WEATHER ROUNDUP
NATIONAL WEATHER SERVICE DETROIT/PONTIAC MI
500 AM EDT MON JUL 22 2019

NOTE: "FAIR" INDICATES FEW OR NO CLOUDS BELOW 12,000 FEET WITH NO
SIGNIFICANT WEATHER AND/OR OBSTRUCTION TO VISIBILITY.

MIZ047>049-052>055-059>063-066>070-074>076-081>083-221000-
SOUTHEAST LOWER MICHIGAN
  
CITY           SKY/WX    TMP DP  RH WIND       PRES   REMARKS
ADRIAN         CLOUDY    64  59  83 NE7       29.94R                  
ALMA           MOCLDY    65  52  62 N7        29.99S                  
ANN ARBOR        N/A    N/A N/A N/A MISG      29.94R                  
BAD AXE        FAIR      61  55  80 NW3       29.95S                  
CARO           FAIR      64  59  83 CALM      29.96S                  
DETROIT CITY   CLOUDY    68  63  84 N6        29.93F                  
DETROIT        LGT RAIN  67  64  90 N10       29.94S                  
FLINT          FAIR      67  59  75 NE7       29.96R                  
HILLSDALE      FAIR      62  60  93 NW6       29.96S                  
HOWELL         MOCLDY    63  60  90 CALM      29.96F                  

CITY           SKY/WX    TMP DP  RH WIND       PRES   REMARKS
JACKSON        FAIR      62  61  96 CALM      29.96S                  
LAMBERTVILLE   CLOUDY   N/A N/A N/A NE3       29.90F                  
LANSING        FAIR      64  60  87 NW6       29.96S                  
LAPEER         MOCLDY    65  59  80 CALM      29.97R                  
MASON          MOCLDY    64  62  91 CALM      29.96S                  
MONROE         CLOUDY    67  66  97 NE5       29.90F                  
MT. CLEMENS    CLOUDY   N/A N/A N/A NW5         N/A                   
PONTIAC        FAIR      66  58  75 N5        29.93R                  
PORT HOPE        N/A     66  56  70 NW8       29.94S                  
PORT HURON     FAIR      68  57  68 N3        29.94S                  
TRI CITIES     MOCLDY    64  56  75 NW8       29.98S                  
MIDLAND        CLOUDY    64  57  78 CALM      29.98S                  
TROY           CLOUDY    65  60  81 CALM      29.96R                  
$$
MIZ043>046-050>051-056>058-064>065-071>073-077>080-221000-
SOUTHWEST LOWER MICHIGAN
  
CITY           SKY/WX    TMP DP  RH WIND       PRES   REMARKS
BATTLE CREEK   CLOUDY    65  64  97 N6        29.96S                  
BENTON HARBOR  FAIR      67  59  75 NE5       29.96R                  
BIG RAPIDS     MOCLDY    60  53  77 NW5       30.01S                  
HOLLAND        FAIR      66  59  78 N6        30.00R                  
GRAND RAPIDS   FAIR      66  57  72 N9        29.98S                  
IONIA          FAIR      64  57  77 N7        29.97S                  
KALAMAZOO      FAIR      67  64  90 N5        29.96S                  
MARSHALL       FAIR     N/A N/A N/A CALM      29.96R                  
MOUNT PLEASANT CLOUDY    64  56  75 CALM      29.98F                  
MUSKEGON         N/A    N/A N/A N/A MISG      30.01R                  
SOUTH HAVEN    FAIR      67  60  79 N5        29.97R                  
$$
MIZ016>042-221000-
NORTHERN LOWER MICHIGAN
  
CITY           SKY/WX    TMP DP  RH WIND       PRES   REMARKS
ALPENA         FAIR      57  50  77 W5        29.98S                  
BEAVER ISLAND  FAIR      55  47  73 N7        30.04S                  
CADILLAC       FAIR      58  55  87 N5        30.02S                  
CHARLEVOIX     FAIR      62  52  69 NW9       30.06S                  
FRANKFORT      FAIR      65  50  58 N8        30.04F                  
GAYLORD        FAIR      55  48  77 NW7       30.02R                  
GRAYLING       CLOUDY    56  50  81 NW7       30.00S                  
HARBOR SPRINGS FAIR      56  53  89 CALM      30.01S                  
HOUGHTON LAKE  FAIR      58  50  75 NW6       30.01F                  
MANISTEE       FAIR      61  50  67 N5        30.04R                  
PELLSTON       FAIR      54  49  83 W5        30.02R                  
ROGERS CITY    FAIR      58  53  81 NW6       30.00R                  
TRAVERSE CITY  FAIR      63  51  65 N6        30.02R                  
$$
MIZ007>008-015-221000-
EASTERN UPPER MICHIGAN
  
CITY           SKY/WX    TMP DP  RH WIND       PRES   REMARKS
KINROSS        FAIR      54  50  86 NW6       30.02S                  
MACKINAC ISLAN MOCLDY    54  48  82 N8        30.01F                  
NEWBERRY       FAIR      51  49  90 NW5       30.04S                  
S. S. MARIE    FAIR      55  53  93 CALM      30.01S                  
MUNISING         N/A     60  53  77 VRB6      30.06R                  
$$
MIZ004>006-011>014-085-221000-
CENTRAL UPPER MICHIGAN
  
CITY           SKY/WX    TMP DP  RH WIND       PRES   REMARKS
ESCANABA       FAIR      55  50  83 NW6       30.07F                  
MENOMINEE      FAIR      57  53  86 NW6       30.09F                  
$$
MIZ001>003-009>011-084-221000-
WESTERN UPPER MICHIGAN
  
CITY           SKY/WX    TMP DP  RH WIND       PRES   REMARKS
IRON MOUNTAIN  FAIR      54  49  83 N3        30.09S                  
HOUGHTON       FAIR      53  50  89 NW9       30.09S                  
COPPER HARBOR    N/A     59  49  69 NW6       30.05F                  
IRONWOOD       FOG       48  48 100 W3        30.15S VSB 1/2          
$$

ABBREVIATIONS USED IN REMARKS
   TC - TEMPERATURE IN CELSIUS
  WCI - WIND CHILL INDEX
   HX - HEAT INDEX
  VSB - VISIBILITY